Volver al catálogo

ARIANE 3 DEB

ActivoGTO
NORAD 20229·DEBRIS·🇫🇷 France

Lanzado Jul 12, 1989 desde Guiana Space Centre

Loading…

TLE

EnvejeciendoSource: Space-Track

Época: Sep 14, 2026, 04:57 UTC

1 20229U 89053C   26257.20656937  .00000407  00000-0  17290-2 0  9992
2 20229   6.4571  52.6434 7176055 134.4874 313.5345  2.32537177301124

Sigue ARIANE 3 DEB en tiempo real con AllMySat

Download on the App Store